Weather History for Tallahassee, FL

Change the Weather History Date:

Thursday, December 27, 2012

  Actual Average Record
Temperature  
Mean Temperature 46 °F 52 °F  
Max Temperature 58 °F 64 °F 79 °F (1942)
Min Temperature 33 °F 40 °F 19 °F (1970)
Degree Days  
Heating Degree Days 19    
Month to date heating degree days 198  
Since 1 July heating degree days 456  
Cooling Degree Days 0    
Month to date cooling degree days 18  
Year to date cooling degree days 2976  
Moisture  
Dew Point 31 °F    
Average Humidity 65    
Maximum Humidity 89    
Minimum Humidity 40    
Precipitation  
Precipitation 0.00 in 0.12 in 4.25 in (1920)
Month to date precipitation 2.75 3.41  
Year to date precipitation 58.79 58.74  
Sea Level Pressure  
Sea Level Pressure 30.09 in    
Wind  
Wind Speed 4 mph (NW)    
Max Wind Speed 14 mph    
Max Gust Speed 17 mph    
Visibility 10 miles    
Events      
T = Trace of Precipitation, MM = Missing Value Source: NWS Daily Summary

Daily Weather History Graph

Daily Weather History Graph

Search for Another Location

Airport:

Trip Planner

Search our weather history database for the weather conditions in past years. The results will help you decide how hot, cold, wet, or windy it might be!

Date:

Astronomy

Dec. 27, 2012 Rise Set
Actual Time 7:32 AM EST 5:44 PM EST
Civil Twilight 7:06 AM EST 6:11 PM EST
Nautical Twilight 6:36 AM EST 6:41 PM EST
Astronomical Twilight 6:07 AM EST 7:10 PM EST
Moon 5:24 PM EST (12/27) 6:45 AM EST (12/27)
Length of Visible Light 11h 04m
Length of Day
10h 11m
Full, 100% of the Moon is Illuminated
Dec 27
Full
Dec 28
Full
Jan 4
Last Quarter
Jan 11
New
Jan 18
First Quarter

Hourly Weather History & Observations

Time (EST) Temp. Windchill Dew Point Humidity Pressure Visibility Wind Dir Wind Speed Gust Speed Precip Events Conditions
12:53 AM 39.0 °F 34.8 °F 30.9 °F 73% 30.06 in 10.0 mi NW 5.8 mph - N/A   Overcast
1:30 AM 39.2 °F 34.2 °F 30.2 °F 70% 30.06 in 10.0 mi NNW 6.9 mph - N/A   Scattered Clouds
1:53 AM 39.0 °F 36.8 °F 30.9 °F 73% 30.06 in 10.0 mi NNW 3.5 mph - N/A   Partly Cloudy
2:25 AM 37.4 °F - 30.2 °F 75% 30.06 in 10.0 mi Calm Calm - N/A   Mostly Cloudy
2:53 AM 37.9 °F 35.5 °F 30.9 °F 76% 30.07 in 10.0 mi NW 3.5 mph - N/A   Overcast
3:53 AM 37.0 °F 32.4 °F 30.0 °F 76% 30.08 in 10.0 mi NW 5.8 mph - N/A   Mostly Cloudy
4:53 AM 35.1 °F 30.1 °F 30.0 °F 82% 30.08 in 10.0 mi WNW 5.8 mph - N/A   Scattered Clouds
5:32 AM 35.6 °F 30.7 °F 30.2 °F 81% 30.08 in 10.0 mi West 5.8 mph - N/A   Mostly Cloudy
5:53 AM 36.0 °F 32.1 °F 30.0 °F 79% 30.08 in 10.0 mi WNW 4.6 mph - N/A   Mostly Cloudy
6:16 AM 35.6 °F - 30.2 °F 81% 30.07 in 10.0 mi Calm Calm - N/A   Scattered Clouds
6:53 AM 35.1 °F 32.2 °F 28.9 °F 78% 30.09 in 10.0 mi NW 3.5 mph - N/A   Clear
7:53 AM 37.0 °F 30.4 °F 30.0 °F 76% 30.11 in 10.0 mi NNW 9.2 mph - N/A   Partly Cloudy
8:53 AM 39.9 °F 32.9 °F 30.0 °F 68% 30.13 in 10.0 mi North 11.5 mph 17.3 mph N/A   Partly Cloudy
9:53 AM 42.1 °F 36.6 °F 30.0 °F 62% 30.14 in 10.0 mi North 9.2 mph - N/A   Clear
10:53 AM 45.0 °F 41.8 °F 30.9 °F 58% 30.14 in 10.0 mi NNE 5.8 mph - N/A   Clear
11:53 AM 48.9 °F - 32.0 °F 52% 30.14 in 10.0 mi Calm Calm - N/A   Clear
12:53 PM 52.0 °F - 32.0 °F 47% 30.11 in 10.0 mi West 4.6 mph - N/A   Clear
1:53 PM 54.0 °F - 33.1 °F 45% 30.08 in 10.0 mi Variable 5.8 mph - N/A   Clear
2:53 PM 55.9 °F - 32.0 °F 40% 30.07 in 10.0 mi SW 3.5 mph - N/A   Clear
3:53 PM 57.2 °F - 33.8 °F 41% 30.05 in 10.0 mi West 3.5 mph - N/A   Clear
4:53 PM 57.0 °F - 34.0 °F 42% 30.06 in 10.0 mi West 5.8 mph - N/A   Clear
5:53 PM 50.0 °F - 36.0 °F 59% 30.07 in 10.0 mi NW 3.5 mph - N/A   Clear
7:53 PM 46.9 °F - 35.1 °F 63% 30.08 in 10.0 mi North 4.6 mph - N/A   Clear
8:53 PM 41.0 °F - 34.0 °F 76% 30.09 in 10.0 mi Calm Calm - N/A   Clear
9:53 PM 37.0 °F - 33.1 °F 86% 30.10 in 10.0 mi Calm Calm - N/A   Clear
10:53 PM 34.0 °F - 30.9 °F 89% 30.10 in 10.0 mi Calm Calm - N/A   Clear
11:53 PM 33.1 °F - 28.9 °F 85% 30.10 in 10.0 mi Calm Calm - N/A   Clear